{"data":{"norad_id":59669,"epoch":"2026-05-25T04:42:41.389632Z","epoch_age_seconds":54707,"freshness":"FRESH","line1":"1 59669U 24084R   26145.19631238  .00003234  00000+0  12698-3 0  9994","line2":"2 59669  43.0019 329.7346 0001362 278.3202  81.7495 15.27584896116078","mean_motion":15.27584896,"eccentricity":0.0001362,"inclination_deg":43.0019,"raan_deg":329.7346,"arg_perigee_deg":278.3202,"mean_anomaly_deg":81.7495,"bstar":0.00012698,"rev_number":11607,"period_min":94.266446583143,"perigee_km":482.09994414394,"apogee_km":483.96892724302,"semimajor_km":6861.1714356935,"source":"CELESTRAK","updated_at":"2026-05-25T13:38:19.020700Z"}}